Time,TemperatureF,DewpointF,PressureIn,WindDirection,WindDirectionDegrees,WindSpeedMPH,WindSpeedGustMPH,Humidity,HourlyPrecipIn,Conditions,Clouds,dailyrainin,SolarRadiationWatts/m^2,SoftwareType,DateUTC
2013-01-02 00:07:00,32.4,29.5,30.16,East,79,0.0,0.0,89,0.00,,,0.00,0,WeatherCatV1.11B39,2013-01-02 08:07:00,
2013-01-02 00:12:00,32.1,29.2,30.16,East,79,0.0,0.0,89,0.00,,,0.00,0,WeatherCatV1.11B39,2013-01-02 08:12:00,
2013-01-02 00:17:00,32.1,29.2,30.16,East,79,0.0,0.0,89,0.00,,,0.00,0,WeatherCatV1.11B39,2013-01-02 08:17:00,
2013-01-02 00:22:00,32.1,29.2,30.16,East,79,0.0,0.0,89,0.00,,,0.00,0,WeatherCatV1.11B39,2013-01-02 08:22:00,
2013-01-02 00:27:00,32.1,29.2,30.16,East,79,0.0,0.0,89,0.00,,,0.00,0,WeatherCatV1.11B39,2013-01-02 08:27:00,
2013-01-02 00:32:00,32.1,29.5,30.16,East,79,0.0,0.0,90,0.00,,,0.00,0,WeatherCatV1.11B39,2013-01-02 08:32:00,
2013-01-02 00:37:00,31.9,29.3,30.16,East,82,0.0,0.0,90,0.00,,,0.00,0,WeatherCatV1.11B39,2013-01-02 08:37:00,
2013-01-02 00:42:00,31.9,29.3,30.16,East,82,0.0,0.0,90,0.00,,,0.00,0,WeatherCatV1.11B39,2013-01-02 08:42:00,
2013-01-02 00:47:00,31.9,29.3,30.16,East,85,0.0,0.0,90,0.00,,,0.00,0,WeatherCatV1.11B39,2013-01-02 08:47:00,
2013-01-02 00:52:00,31.8,29.2,30.16,East,85,0.0,0.0,90,0.00,,,0.00,0,WeatherCatV1.11B39,2013-01-02 08:52:00,
2013-01-02 00:57:00,31.8,29.2,30.16,East,85,0.0,0.0,90,0.00,,,0.00,0,WeatherCatV1.11B39,2013-01-02 08:57:00,
2013-01-02 01:02:00,31.8,29.2,30.16,SSE,158,0.0,0.0,90,0.00,,,0.00,0,WeatherCatV1.11B39,2013-01-02 09:02:00,
2013-01-02 01:07:00,31.8,29.2,30.16,ESE,123,0.0,0.0,90,0.00,,,0.00,0,WeatherCatV1.11B39,2013-01-02 09:07:00,
2013-01-02 01:12:00,31.6,29.0,30.16,SE,124,0.0,0.0,90,0.00,,,0.00,0,WeatherCatV1.11B39,2013-01-02 09:12:00,
2013-01-02 01:17:00,31.5,28.9,30.15,SE,127,0.0,0.0,90,0.00,,,0.00,0,WeatherCatV1.11B39,2013-01-02 09:17:00,
2013-01-02 01:22:00,31.5,28.9,30.15,SE,127,0.0,0.0,90,0.00,,,0.00,0,WeatherCatV1.11B39,2013-01-02 09:22:00,
2013-01-02 01:27:00,31.5,29.2,30.15,SE,127,0.0,0.0,91,0.00,,,0.00,0,WeatherCatV1.11B39,2013-01-02 09:27:00,
2013-01-02 01:32:00,31.3,29.0,30.15,ESE,119,0.0,0.0,91,0.00,,,0.00,0,WeatherCatV1.11B39,2013-01-02 09:32:00,
2013-01-02 01:37:00,31.3,29.0,30.15,SE,124,0.0,0.0,91,0.00,,,0.00,0,WeatherCatV1.11B39,2013-01-02 09:37:00,
2013-01-02 01:42:00,31.3,29.0,30.15,ESE,113,0.0,0.0,91,0.00,,,0.00,0,WeatherCatV1.11B39,2013-01-02 09:42:00,
2013-01-02 01:47:00,31.3,29.0,30.15,ESE,109,0.0,0.0,91,0.00,,,0.00,0,WeatherCatV1.11B39,2013-01-02 09:47:00,
2013-01-02 01:52:00,31.3,29.0,30.15,SE,137,0.0,0.0,91,0.00,,,0.00,0,WeatherCatV1.11B39,2013-01-02 09:52:00,
2013-01-02 01:57:00,31.5,29.2,30.15,East,95,0.0,0.0,91,0.00,,,0.00,0,WeatherCatV1.11B39,2013-01-02 09:57:00,
2013-01-02 02:07:00,31.6,29.3,30.14,East,95,0.0,0.0,91,0.00,,,0.00,0,WeatherCatV1.11B39,2013-01-02 10:07:00,
2013-01-02 02:12:00,31.6,31.6,30.14,East,96,0.0,0.0,100,0.00,,,0.00,0,WeatherCatV1.11B39,2013-01-02 10:12:00,
2013-01-02 02:17:00,31.8,31.8,30.15,East,89,0.0,0.0,100,0.00,,,0.00,0,WeatherCatV1.11B39,2013-01-02 10:17:00,
2013-01-02 02:22:00,32.5,32.5,30.15,ENE,75,0.0,0.0,100,0.00,,,0.00,0,WeatherCatV1.11B39,2013-01-02 10:22:00,
2013-01-02 02:27:00,32.9,32.9,30.15,ENE,75,0.0,0.0,100,0.00,,,0.00,0,WeatherCatV1.11B39,2013-01-02 10:27:00,
2013-01-02 02:32:00,33.2,33.2,30.15,ENE,75,0.0,0.0,100,0.00,,,0.00,0,WeatherCatV1.11B39,2013-01-02 10:32:00,
2013-01-02 02:37:00,33.7,33.7,30.15,ENE,75,0.0,0.0,100,0.00,,,0.00,0,WeatherCatV1.11B39,2013-01-02 10:37:00,
2013-01-02 02:42:00,34.0,34.0,30.15,ENE,75,0.0,0.0,100,0.00,,,0.00,0,WeatherCatV1.11B39,2013-01-02 10:42:00,
2013-01-02 02:47:00,34.3,34.3,30.15,North,10,0.0,0.0,100,0.00,,,0.00,0,WeatherCatV1.11B39,2013-01-02 10:47:00,
2013-01-02 02:52:00,34.6,34.6,30.15,NNE,13,0.0,1.0,100,0.00,,,0.00,0,WeatherCatV1.11B39,2013-01-02 10:52:00,
2013-01-02 02:57:00,35.5,35.5,30.15,NE,40,0.0,2.0,100,0.00,,,0.00,0,WeatherCatV1.11B39,2013-01-02 10:57:00,
2013-01-02 03:02:00,36.0,36.0,30.14,NE,40,0.0,0.0,100,0.00,,,0.00,0,WeatherCatV1.11B39,2013-01-02 11:02:00,
2013-01-02 03:07:00,36.5,36.5,30.14,NE,40,0.0,2.0,100,0.00,,,0.00,0,WeatherCatV1.11B39,2013-01-02 11:07:00,
2013-01-02 03:12:00,37.0,37.0,30.14,NE,54,0.0,1.0,100,0.00,,,0.00,0,WeatherCatV1.11B39,2013-01-02 11:12:00,
2013-01-02 03:17:00,37.8,37.8,30.14,NE,54,0.0,1.0,100,0.00,,,0.00,0,WeatherCatV1.11B39,2013-01-02 11:17:00,
2013-01-02 03:22:00,38.2,38.2,30.14,NE,44,0.0,0.0,100,0.00,,,0.00,0,WeatherCatV1.11B39,2013-01-02 11:22:00,
2013-01-02 03:27:00,38.3,38.3,30.14,NE,44,0.0,0.0,100,0.00,,,0.00,0,WeatherCatV1.11B39,2013-01-02 11:27:00,
2013-01-02 03:32:00,38.2,31.6,30.14,NE,44,0.0,0.0,77,0.00,,,0.00,0,WeatherCatV1.11B39,2013-01-02 11:32:00,
2013-01-02 03:37:00,38.2,31.6,30.14,NE,37,0.0,0.0,77,0.00,,,0.00,0,WeatherCatV1.11B39,2013-01-02 11:37:00,
2013-01-02 03:42:00,38.0,31.1,30.14,NE,44,0.0,0.0,76,0.00,,,0.00,0,WeatherCatV1.11B39,2013-01-02 11:42:00,
2013-01-02 03:47:00,37.8,30.9,30.13,NE,44,0.0,0.0,76,0.00,,,0.00,0,WeatherCatV1.11B39,2013-01-02 11:47:00,
2013-01-02 03:52:00,37.6,30.7,30.13,NE,44,0.0,0.0,76,0.00,,,0.00,0,WeatherCatV1.11B39,2013-01-02 11:52:00,
2013-01-02 03:57:00,37.5,30.6,30.13,NE,44,0.0,0.0,76,0.00,,,0.00,0,WeatherCatV1.11B39,2013-01-02 11:57:00,
2013-01-02 04:02:00,37.5,30.3,30.13,NE,44,0.0,0.0,75,0.00,,,0.00,0,WeatherCatV1.11B39,2013-01-02 12:02:00,
2013-01-02 04:07:00,37.5,30.3,30.13,NE,44,0.0,0.0,75,0.00,,,0.00,0,WeatherCatV1.11B39,2013-01-02 12:07:00,
2013-01-02 04:12:00,37.2,30.3,30.13,NE,44,0.0,0.0,76,0.00,,,0.00,0,WeatherCatV1.11B39,2013-01-02 12:12:00,
2013-01-02 04:17:00,37.0,30.2,30.13,NE,44,0.0,0.0,76,0.00,,,0.00,0,WeatherCatV1.11B39,2013-01-02 12:17:00,
2013-01-02 04:22:00,36.6,30.1,30.13,NE,44,0.0,0.0,77,0.00,,,0.00,0,WeatherCatV1.11B39,2013-01-02 12:22:00,
2013-01-02 04:27:00,36.5,30.3,30.13,NE,44,0.0,0.0,78,0.00,,,0.00,0,WeatherCatV1.11B39,2013-01-02 12:27:00,
2013-01-02 04:32:00,35.9,29.7,30.12,NE,44,0.0,0.0,78,0.00,,,0.00,0,WeatherCatV1.11B39,2013-01-02 12:32:00,
2013-01-02 04:37:00,35.5,29.6,30.12,NE,44,0.0,0.0,79,0.00,,,0.00,0,WeatherCatV1.11B39,2013-01-02 12:37:00,
2013-01-02 04:42:00,35.3,29.5,30.12,NE,44,0.0,0.0,79,0.00,,,0.00,0,WeatherCatV1.11B39,2013-01-02 12:42:00,
2013-01-02 04:47:00,35.0,29.2,30.12,NE,37,0.0,0.0,79,0.00,,,0.00,0,WeatherCatV1.11B39,2013-01-02 12:47:00,
2013-01-02 04:52:00,34.7,28.9,30.12,NE,44,0.0,0.0,79,0.00,,,0.00,0,WeatherCatV1.11B39,2013-01-02 12:52:00,
2013-01-02 04:57:00,34.4,29.2,30.12,NE,44,0.0,0.0,81,0.00,,,0.00,0,WeatherCatV1.11B39,2013-01-02 12:57:00,
2013-01-02 05:02:00,34.3,29.1,30.11,NE,47,0.0,0.0,81,0.00,,,0.00,0,WeatherCatV1.11B39,2013-01-02 13:02:00,
2013-01-02 05:07:00,34.1,29.2,30.11,NE,47,0.0,0.0,82,0.00,,,0.00,0,WeatherCatV1.11B39,2013-01-02 13:07:00,
2013-01-02 05:12:00,33.7,28.8,30.11,NE,51,0.0,0.0,82,0.00,,,0.00,0,WeatherCatV1.11B39,2013-01-02 13:12:00,
2013-01-02 05:17:00,33.5,28.9,30.11,NE,51,0.0,0.0,83,0.00,,,0.00,0,WeatherCatV1.11B39,2013-01-02 13:17:00,
2013-01-02 05:22:00,33.4,28.8,30.11,ENE,72,0.0,0.0,83,0.00,,,0.00,0,WeatherCatV1.11B39,2013-01-02 13:22:00,
2013-01-02 05:27:00,33.2,28.9,30.11,ENE,65,0.0,0.0,84,0.00,,,0.00,0,WeatherCatV1.11B39,2013-01-02 13:27:00,
2013-01-02 05:32:00,33.1,29.1,30.11,ENE,75,0.0,0.0,85,0.00,,,0.00,0,WeatherCatV1.11B39,2013-01-02 13:32:00,
2013-01-02 05:37:00,33.1,29.1,30.11,ESE,107,0.0,0.0,85,0.00,,,0.00,0,WeatherCatV1.11B39,2013-01-02 13:37:00,
2013-01-02 05:42:00,33.1,29.1,30.11,East,96,0.0,0.0,85,0.00,,,0.00,0,WeatherCatV1.11B39,2013-01-02 13:42:00,
2013-01-02 05:47:00,32.9,28.9,30.11,East,100,0.0,0.0,85,0.00,,,0.00,0,WeatherCatV1.11B39,2013-01-02 13:47:00,
2013-01-02 05:52:00,32.8,28.8,30.11,East,89,0.0,0.0,85,0.00,,,0.00,0,WeatherCatV1.11B39,2013-01-02 13:52:00,
2013-01-02 05:57:00,32.7,28.7,30.11,East,89,0.0,0.0,85,0.00,,,0.00,0,WeatherCatV1.11B39,2013-01-02 13:57:00,
2013-01-02 06:02:00,32.7,28.7,30.11,NNE,17,0.0,0.0,85,0.00,,,0.00,0,WeatherCatV1.11B39,2013-01-02 14:02:00,
2013-01-02 06:07:00,32.7,28.7,30.11,ENE,75,0.0,0.0,85,0.00,,,0.00,0,WeatherCatV1.11B39,2013-01-02 14:07:00,
2013-01-02 06:12:00,32.7,29.0,30.11,East,96,0.0,0.0,86,0.00,,,0.00,0,WeatherCatV1.11B39,2013-01-02 14:12:00,
2013-01-02 06:17:00,32.5,28.8,30.11,East,96,0.0,0.0,86,0.00,,,0.00,0,WeatherCatV1.11B39,2013-01-02 14:17:00,
2013-01-02 06:22:00,32.5,28.8,30.11,ENE,72,0.0,0.0,86,0.00,,,0.00,0,WeatherCatV1.11B39,2013-01-02 14:22:00,
2013-01-02 06:27:00,32.7,29.0,30.11,East,79,0.0,0.0,86,0.00,,,0.00,0,WeatherCatV1.11B39,2013-01-02 14:27:00,
2013-01-02 06:32:00,32.8,29.4,30.13,NE,55,0.0,1.0,87,0.00,,,0.00,0,WeatherCatV1.11B39,2013-01-02 14:32:00,
2013-01-02 06:37:00,32.8,29.1,30.13,NE,55,0.0,0.0,86,0.00,,,0.00,0,WeatherCatV1.11B39,2013-01-02 14:37:00,
2013-01-02 06:42:00,32.7,29.0,30.13,NE,55,0.0,0.0,86,0.00,,,0.00,0,WeatherCatV1.11B39,2013-01-02 14:42:00,
2013-01-02 06:47:00,32.5,28.8,30.13,NE,55,0.0,0.0,86,0.00,,,0.00,0,WeatherCatV1.11B39,2013-01-02 14:47:00,
2013-01-02 06:52:00,32.4,28.4,30.13,East,79,0.0,0.0,85,0.00,,,0.00,0,WeatherCatV1.11B39,2013-01-02 14:52:00,
2013-01-02 06:57:00,32.2,28.5,30.13,ESE,109,0.0,0.0,86,0.00,,,0.00,0,WeatherCatV1.11B39,2013-01-02 14:57:00,
2013-01-02 07:02:00,32.1,28.4,30.13,East,99,0.0,0.0,86,0.00,,,0.00,0,WeatherCatV1.11B39,2013-01-02 15:02:00,
2013-01-02 07:07:00,31.8,28.1,30.13,East,96,0.0,0.0,86,0.00,,,0.00,0,WeatherCatV1.11B39,2013-01-02 15:07:00,
2013-01-02 07:12:00,31.8,28.1,30.13,East,79,0.0,0.0,86,0.00,,,0.00,0,WeatherCatV1.11B39,2013-01-02 15:12:00,
2013-01-02 07:17:00,31.6,27.9,30.13,ESE,102,0.0,0.0,86,0.00,,,0.00,0,WeatherCatV1.11B39,2013-01-02 15:17:00,
2013-01-02 07:22:00,31.6,28.2,30.13,East,96,0.0,0.0,87,0.00,,,0.00,0,WeatherCatV1.11B39,2013-01-02 15:22:00,
2013-01-02 07:27:00,31.3,27.9,30.13,East,86,0.0,0.0,87,0.00,,,0.00,0,WeatherCatV1.11B39,2013-01-02 15:27:00,
2013-01-02 07:32:00,31.2,27.8,30.13,ESE,103,0.0,0.0,87,0.00,,,0.00,0,WeatherCatV1.11B39,2013-01-02 15:32:00,
2013-01-02 07:37:00,31.2,27.8,30.13,ESE,103,0.0,0.0,87,0.00,,,0.00,0,WeatherCatV1.11B39,2013-01-02 15:37:00,
2013-01-02 07:42:00,31.2,27.8,30.13,ESE,106,0.0,0.0,87,0.00,,,0.00,0,WeatherCatV1.11B39,2013-01-02 15:42:00,
2013-01-02 07:47:00,30.9,27.8,30.14,East,93,0.0,0.0,88,0.00,,,0.00,0,WeatherCatV1.11B39,2013-01-02 15:47:00,
2013-01-02 07:52:00,30.9,27.8,30.14,ESE,106,0.0,0.0,88,0.00,,,0.00,9,WeatherCatV1.11B39,2013-01-02 15:52:00,
2013-01-02 07:57:00,30.9,27.8,30.14,East,96,0.0,0.0,88,0.00,,,0.00,9,WeatherCatV1.11B39,2013-01-02 15:57:00,
2013-01-02 08:02:00,30.9,27.8,30.14,East,100,0.0,0.0,88,0.00,,,0.00,16,WeatherCatV1.11B39,2013-01-02 16:02:00,
2013-01-02 08:07:00,30.9,28.0,30.14,NE,55,0.0,0.0,89,0.00,,,0.00,28,WeatherCatV1.11B39,2013-01-02 16:07:00,
2013-01-02 08:12:00,31.5,28.6,30.14,NE,41,0.0,0.0,89,0.00,,,0.00,28,WeatherCatV1.11B39,2013-01-02 16:12:00,
2013-01-02 08:17:00,32.2,29.3,30.14,NE,41,0.0,0.0,89,0.00,,,0.00,125,WeatherCatV1.11B39,2013-01-02 16:17:00,
2013-01-02 08:22:00,33.2,30.6,30.14,ENE,71,0.0,0.0,90,0.00,,,0.00,150,WeatherCatV1.11B39,2013-01-02 16:22:00,
2013-01-02 08:27:00,34.7,32.3,30.14,South,178,0.0,1.0,91,0.00,,,0.00,150,WeatherCatV1.11B39,2013-01-02 16:27:00,
2013-01-02 08:32:00,36.0,33.4,30.14,South,178,0.0,0.0,90,0.00,,,0.00,151,WeatherCatV1.11B39,2013-01-02 16:32:00,
2013-01-02 08:37:00,38.3,33.3,30.14,South,169,0.0,1.0,82,0.00,,,0.00,178,WeatherCatV1.11B39,2013-01-02 16:37:00,
2013-01-02 08:42:00,39.5,33.2,30.14,South,181,1.0,1.0,78,0.00,,,0.00,190,WeatherCatV1.11B39,2013-01-02 16:42:00,
2013-01-02 08:47:00,40.3,34.0,30.14,SSW,203,0.0,0.0,78,0.00,,,0.00,199,WeatherCatV1.11B39,2013-01-02 16:47:00,
2013-01-02 08:52:00,42.5,33.8,30.14,South,182,0.0,3.0,71,0.00,,,0.00,213,WeatherCatV1.11B39,2013-01-02 16:52:00,
2013-01-02 08:57:00,43.5,31.4,30.14,SSW,200,0.0,1.0,62,0.00,,,0.00,225,WeatherCatV1.11B39,2013-01-02 16:57:00,
2013-01-02 09:02:00,44.9,31.5,30.15,South,176,1.0,2.0,59,0.00,,,0.00,260,WeatherCatV1.11B39,2013-01-02 17:02:00,
2013-01-02 09:07:00,45.8,31.0,30.15,South,172,0.0,1.0,56,0.00,,,0.00,271,WeatherCatV1.11B39,2013-01-02 17:07:00,
2013-01-02 09:12:00,46.7,31.4,30.15,SSE,168,0.0,2.0,55,0.00,,,0.00,290,WeatherCatV1.11B39,2013-01-02 17:12:00,
2013-01-02 09:17:00,47.4,30.7,30.15,South,182,0.0,1.0,52,0.00,,,0.00,303,WeatherCatV1.11B39,2013-01-02 17:17:00,
2013-01-02 09:22:00,48.2,30.4,30.15,South,174,5.0,5.0,50,0.00,,,0.00,322,WeatherCatV1.11B39,2013-01-02 17:22:00,
2013-01-02 09:27:00,48.3,30.5,30.15,South,172,1.0,2.0,50,0.00,,,0.00,331,WeatherCatV1.11B39,2013-01-02 17:27:00,
2013-01-02 09:32:00,48.8,30.0,30.15,SSE,160,0.0,0.0,48,0.00,,,0.00,331,WeatherCatV1.11B39,2013-01-02 17:32:00,
2013-01-02 09:37:00,49.1,30.8,30.15,SSE,155,1.0,2.0,49,0.00,,,0.00,354,WeatherCatV1.11B39,2013-01-02 17:37:00,
2013-01-02 09:42:00,49.4,31.0,30.15,SSE,154,1.0,1.0,49,0.00,,,0.00,354,WeatherCatV1.11B39,2013-01-02 17:42:00,
2013-01-02 09:50:00,50.4,32.0,30.16,SSE,150,1.0,1.0,49,0.00,,,0.00,354,WeatherCatV1.12B45,2013-01-02 17:50:00,
2013-01-02 10:00:00,51.3,30.1,30.16,SSE,168,2.0,2.0,44,0.00,,,0.00,406,WeatherCatV1.12B45,2013-01-02 18:00:00,
2013-01-02 10:05:00,51.1,30.0,30.16,South,179,0.0,2.0,44,0.00,,,0.00,426,WeatherCatV1.12B45,2013-01-02 18:05:00,
2013-01-02 10:10:00,51.3,30.1,30.16,North,0,1.0,2.0,44,0.00,,,0.00,426,WeatherCatV1.12B45,2013-01-02 18:10:00,
2013-01-02 10:15:00,51.6,31.0,30.16,SSE,150,2.0,2.0,45,0.00,,,0.00,445,WeatherCatV1.12B45,2013-01-02 18:15:00,
2013-01-02 10:20:00,51.7,29.9,30.16,SE,140,0.0,3.0,43,0.00,,,0.00,450,WeatherCatV1.12B45,2013-01-02 18:20:00,
2013-01-02 10:25:00,52.2,29.8,30.16,SSW,195,1.0,2.0,42,0.00,,,0.00,456,WeatherCatV1.12B45,2013-01-02 18:25:00,
2013-01-02 10:30:00,52.3,29.9,30.16,SSE,164,0.0,5.0,42,0.00,,,0.00,472,WeatherCatV1.12B45,2013-01-02 18:30:00,
2013-01-02 10:35:00,52.8,30.3,30.16,NNW,344,1.0,3.0,42,0.00,,,0.00,482,WeatherCatV1.12B45,2013-01-02 18:35:00,
2013-01-02 10:40:00,53.1,29.4,30.16,South,175,1.0,5.0,40,0.00,,,0.00,489,WeatherCatV1.12B45,2013-01-02 18:40:00,
2013-01-02 10:45:00,53.1,28.2,30.16,North,349,3.0,3.0,38,0.00,,,0.00,496,WeatherCatV1.12B45,2013-01-02 18:45:00,
2013-01-02 10:50:00,53.2,28.3,30.16,SSE,167,1.0,5.0,38,0.00,,,0.00,503,WeatherCatV1.12B45,2013-01-02 18:50:00,
2013-01-02 10:55:00,53.3,28.3,30.16,North,0,0.0,3.0,38,0.00,,,0.00,510,WeatherCatV1.12B45,2013-01-02 18:55:00,
2013-01-02 11:00:00,53.6,28.6,30.15,SSE,158,0.0,0.0,38,0.00,,,0.00,517,WeatherCatV1.12B45,2013-01-02 19:00:00,
2013-01-02 11:05:00,54.2,29.8,30.15,SE,127,2.0,3.0,39,0.00,,,0.00,524,WeatherCatV1.12B45,2013-01-02 19:05:00,
2013-01-02 11:10:00,54.8,29.7,30.15,South,171,4.0,4.0,38,0.00,,,0.00,524,WeatherCatV1.12B45,2013-01-02 19:10:00,
2013-01-02 11:15:00,55.3,30.1,30.15,ESE,113,1.0,1.0,38,0.00,,,0.00,533,WeatherCatV1.12B45,2013-01-02 19:15:00,
2013-01-02 11:20:00,55.3,30.1,30.15,SE,140,0.0,1.0,38,0.00,,,0.00,533,WeatherCatV1.12B45,2013-01-02 19:20:00,
2013-01-02 11:25:00,55.4,29.6,30.15,ESE,117,3.0,5.0,37,0.00,,,0.00,533,WeatherCatV1.12B45,2013-01-02 19:25:00,
2013-01-02 11:30:00,55.3,29.5,30.14,SSE,148,3.0,3.0,37,0.00,,,0.00,545,WeatherCatV1.12B45,2013-01-02 19:30:00,
2013-01-02 11:35:00,55.3,29.5,30.14,North,356,1.0,2.0,37,0.00,,,0.00,549,WeatherCatV1.12B45,2013-01-02 19:35:00,
2013-01-02 11:40:00,55.4,28.9,30.14,ESE,123,0.0,2.0,36,0.00,,,0.00,554,WeatherCatV1.12B45,2013-01-02 19:40:00,
2013-01-02 11:45:00,55.6,31.0,30.13,North,0,2.0,2.0,39,0.00,,,0.00,554,WeatherCatV1.12B45,2013-01-02 19:45:00,
2013-01-02 11:50:00,56.0,30.1,30.13,SE,131,2.0,3.0,37,0.00,,,0.00,558,WeatherCatV1.12B45,2013-01-02 19:50:00,
2013-01-02 11:55:00,56.2,30.3,30.13,North,0,0.0,0.0,37,0.00,,,0.00,560,WeatherCatV1.12B45,2013-01-02 19:55:00,
2013-01-02 12:00:00,56.3,29.7,30.12,NNW,347,2.0,5.0,36,0.00,,,0.00,560,WeatherCatV1.12B45,2013-01-02 20:00:00,
2013-01-02 12:05:00,56.5,30.5,30.12,North,357,0.0,3.0,37,0.00,,,0.00,563,WeatherCatV1.12B45,2013-01-02 20:05:00,
2013-01-02 12:10:00,56.6,30.6,30.12,North,0,2.0,5.0,37,0.00,,,0.00,561,WeatherCatV1.12B45,2013-01-02 20:10:00,
2013-01-02 12:15:00,56.7,30.7,30.12,ESE,120,0.0,6.0,37,0.00,,,0.00,563,WeatherCatV1.12B45,2013-01-02 20:15:00,
2013-01-02 12:20:00,56.9,30.9,30.12,NNW,347,2.0,5.0,37,0.00,,,0.00,563,WeatherCatV1.12B45,2013-01-02 20:20:00,
2013-01-02 12:25:00,57.0,31.0,30.12,SSE,150,1.0,3.0,37,0.00,,,0.00,561,WeatherCatV1.12B45,2013-01-02 20:25:00,
2013-01-02 12:30:00,57.2,31.2,30.11,SE,127,0.0,1.0,37,0.00,,,0.00,560,WeatherCatV1.12B45,2013-01-02 20:30:00,
2013-01-02 12:35:00,57.2,31.2,30.11,SSW,198,0.0,0.0,37,0.00,,,0.00,560,WeatherCatV1.12B45,2013-01-02 20:35:00,
2013-01-02 12:40:00,56.9,30.9,30.11,SE,140,0.0,7.0,37,0.00,,,0.00,556,WeatherCatV1.12B45,2013-01-02 20:40:00,
2013-01-02 12:45:00,56.3,31.0,30.11,SE,124,5.0,5.0,38,0.00,,,0.00,556,WeatherCatV1.12B45,2013-01-02 20:45:00,
2013-01-02 12:50:00,56.2,30.9,30.11,SE,131,0.0,2.0,38,0.00,,,0.00,556,WeatherCatV1.12B45,2013-01-02 20:50:00,
2013-01-02 12:55:00,56.6,31.3,30.11,SE,144,1.0,5.0,38,0.00,,,0.00,547,WeatherCatV1.12B45,2013-01-02 20:55:00,
2013-01-02 13:00:00,56.6,33.2,30.11,SSE,151,3.0,7.0,41,0.00,,,0.00,544,WeatherCatV1.12B45,2013-01-02 21:00:00,
2013-01-02 13:05:00,56.5,33.1,30.11,SSE,161,2.0,2.0,41,0.00,,,0.00,542,WeatherCatV1.12B45,2013-01-02 21:05:00,
2013-01-02 13:10:00,56.3,32.3,30.11,SE,134,1.0,2.0,40,0.00,,,0.00,535,WeatherCatV1.12B45,2013-01-02 21:10:00,
2013-01-02 13:15:00,56.2,32.2,30.10,SSE,168,6.0,6.0,40,0.00,,,0.00,535,WeatherCatV1.12B45,2013-01-02 21:15:00,
2013-01-02 13:20:00,56.3,32.9,30.10,North,0,3.0,3.0,41,0.00,,,0.00,523,WeatherCatV1.12B45,2013-01-02 21:20:00,
2013-01-02 13:25:00,56.6,33.2,30.10,SSE,150,3.0,3.0,41,0.00,,,0.00,521,WeatherCatV1.12B45,2013-01-02 21:25:00,
2013-01-02 13:30:00,56.6,32.6,30.09,ESE,112,3.0,5.0,40,0.00,,,0.00,512,WeatherCatV1.12B45,2013-01-02 21:30:00,
2013-01-02 13:35:00,56.7,32.7,30.09,North,0,0.0,5.0,40,0.00,,,0.00,505,WeatherCatV1.12B45,2013-01-02 21:35:00,
2013-01-02 13:40:00,56.9,32.2,30.09,NNW,339,0.0,2.0,39,0.00,,,0.00,501,WeatherCatV1.12B45,2013-01-02 21:40:00,
2013-01-02 13:45:00,57.0,30.3,30.09,North,356,3.0,6.0,36,0.00,,,0.00,496,WeatherCatV1.12B45,2013-01-02 21:45:00,
2013-01-02 13:50:00,56.9,31.6,30.09,SE,127,0.0,3.0,38,0.00,,,0.00,486,WeatherCatV1.12B45,2013-01-02 21:50:00,
2013-01-02 13:55:00,56.7,32.0,30.09,SE,131,0.0,2.0,39,0.00,,,0.00,477,WeatherCatV1.12B45,2013-01-02 21:55:00,
2013-01-02 14:00:00,57.0,31.6,30.08,North,357,3.0,4.0,38,0.00,,,0.00,470,WeatherCatV1.12B45,2013-01-02 22:00:00,
2013-01-02 14:05:00,57.0,31.6,30.08,SSE,151,1.0,3.0,38,0.00,,,0.00,461,WeatherCatV1.12B45,2013-01-02 22:05:00,
2013-01-02 14:10:00,57.0,31.0,30.08,SE,141,0.0,3.0,37,0.00,,,0.00,450,WeatherCatV1.12B45,2013-01-02 22:10:00,
2013-01-02 14:15:00,57.2,31.2,30.08,SE,131,0.0,0.0,37,0.00,,,0.00,440,WeatherCatV1.12B45,2013-01-02 22:15:00,
2013-01-02 14:20:00,57.5,30.8,30.08,SE,130,2.0,5.0,36,0.00,,,0.00,440,WeatherCatV1.12B45,2013-01-02 22:20:00,
2013-01-02 14:25:00,57.3,31.3,30.08,ESE,117,1.0,1.0,37,0.00,,,0.00,440,WeatherCatV1.12B45,2013-01-02 22:25:00,
2013-01-02 14:30:00,57.5,31.4,30.08,SE,136,0.0,1.0,37,0.00,,,0.00,410,WeatherCatV1.12B45,2013-01-02 22:30:00,
2013-01-02 14:35:00,57.6,30.8,30.08,ESE,119,2.0,3.0,36,0.00,,,0.00,398,WeatherCatV1.12B45,2013-01-02 22:35:00,
2013-01-02 14:40:00,57.5,30.8,30.08,ESE,117,1.0,2.0,36,0.00,,,0.00,389,WeatherCatV1.12B45,2013-01-02 22:40:00,
2013-01-02 14:45:00,57.3,30.6,30.07,East,96,1.0,1.0,36,0.00,,,0.00,380,WeatherCatV1.12B45,2013-01-02 22:45:00,
2013-01-02 14:50:00,57.3,30.6,30.07,East,79,2.0,3.0,36,0.00,,,0.00,380,WeatherCatV1.12B45,2013-01-02 22:50:00,
2013-01-02 14:55:00,57.2,31.2,30.07,SE,126,3.0,6.0,37,0.00,,,0.00,359,WeatherCatV1.12B45,2013-01-02 22:55:00,
2013-01-02 15:00:00,57.0,31.0,30.07,ESE,120,2.0,5.0,37,0.00,,,0.00,345,WeatherCatV1.12B45,2013-01-02 23:00:00,
2013-01-02 15:05:00,56.9,32.2,30.07,SE,137,2.0,3.0,39,0.00,,,0.00,329,WeatherCatV1.12B45,2013-01-02 23:05:00,
2013-01-02 15:10:00,56.9,32.2,30.07,SSE,160,5.0,5.0,39,0.00,,,0.00,311,WeatherCatV1.12B45,2013-01-02 23:10:00,
2013-01-02 15:15:00,56.7,31.4,30.07,SSE,150,0.0,7.0,38,0.00,,,0.00,297,WeatherCatV1.12B45,2013-01-02 23:15:00,
2013-01-02 15:20:00,56.6,31.3,30.07,SE,143,0.0,2.0,38,0.00,,,0.00,282,WeatherCatV1.12B45,2013-01-02 23:20:00,
2013-01-02 15:25:00,56.6,31.3,30.07,SE,127,0.0,1.0,38,0.00,,,0.00,267,WeatherCatV1.12B45,2013-01-02 23:25:00,
2013-01-02 15:30:00,56.7,30.7,30.07,SSE,158,2.0,6.0,37,0.00,,,0.00,257,WeatherCatV1.12B45,2013-01-02 23:30:00,
2013-01-02 15:35:00,56.7,30.7,30.07,SSE,158,2.0,2.0,37,0.00,,,0.00,257,WeatherCatV1.12B45,2013-01-02 23:35:00,
2013-01-02 15:45:00,57.0,31.0,30.07,SSE,148,1.0,1.0,37,0.00,,,0.00,234,WeatherCatV1.12B45,2013-01-02 23:45:00,
2013-01-02 15:50:00,56.9,30.9,30.07,ESE,119,0.0,1.0,37,0.00,,,0.00,234,WeatherCatV1.12B45,2013-01-02 23:50:00,
2013-01-02 15:55:00,56.5,30.5,30.07,SE,140,0.0,3.0,37,0.00,,,0.00,234,WeatherCatV1.12B45,2013-01-02 23:55:00,
2013-01-02 16:00:00,55.9,30.0,30.07,SSE,151,0.0,5.0,37,0.00,,,0.00,234,WeatherCatV1.12B45,2013-01-03 00:00:00,
2013-01-02 16:05:00,55.4,29.6,30.07,SSW,198,2.0,6.0,37,0.00,,,0.00,234,WeatherCatV1.12B45,2013-01-03 00:05:00,
2013-01-02 16:10:00,55.1,29.3,30.07,North,354,1.0,2.0,37,0.00,,,0.00,63,WeatherCatV1.12B45,2013-01-03 00:10:00,
2013-01-02 16:15:00,55.1,29.3,30.07,SE,141,0.0,0.0,37,0.00,,,0.00,63,WeatherCatV1.12B45,2013-01-03 00:15:00,
2013-01-02 16:20:00,54.4,28.7,30.07,South,174,1.0,5.0,37,0.00,,,0.00,63,WeatherCatV1.12B45,2013-01-03 00:20:00,
2013-01-02 16:25:00,54.4,28.7,30.07,SW,217,2.0,2.0,37,0.00,,,0.00,63,WeatherCatV1.12B45,2013-01-03 00:25:00,
2013-01-02 16:30:00,54.4,28.7,30.07,SSW,209,0.0,1.0,37,0.00,,,0.00,63,WeatherCatV1.12B45,2013-01-03 00:30:00,
2013-01-02 16:35:00,54.4,28.7,30.07,SSE,150,1.0,1.0,37,0.00,,,0.00,63,WeatherCatV1.12B45,2013-01-03 00:35:00,
2013-01-02 16:45:00,53.2,27.6,30.07,South,179,0.0,0.0,37,0.00,,,0.00,11,WeatherCatV1.12B45,2013-01-03 00:45:00,
2013-01-02 16:50:00,52.8,27.3,30.07,South,182,0.0,0.0,37,0.00,,,0.00,11,WeatherCatV1.12B45,2013-01-03 00:50:00,
2013-01-02 16:55:00,52.0,31.9,30.07,South,169,0.0,1.0,46,0.00,,,0.00,5,WeatherCatV1.12B45,2013-01-03 00:55:00,
2013-01-02 17:00:00,51.6,31.5,30.07,SSW,203,1.0,2.0,46,0.00,,,0.00,0,WeatherCatV1.12B45,2013-01-03 01:00:00,
2013-01-02 17:05:00,51.1,31.6,30.07,SSE,148,2.0,3.0,47,0.00,,,0.00,0,WeatherCatV1.12B45,2013-01-03 01:05:00,
2013-01-02 17:10:00,50.7,31.2,30.07,North,357,0.0,0.0,47,0.00,,,0.00,0,WeatherCatV1.12B45,2013-01-03 01:10:00,
2013-01-02 17:15:00,50.4,32.0,30.07,North,356,0.0,0.0,49,0.00,,,0.00,0,WeatherCatV1.12B45,2013-01-03 01:15:00,
2013-01-02 17:20:00,50.1,32.2,30.07,North,357,0.0,0.0,50,0.00,,,0.00,0,WeatherCatV1.12B45,2013-01-03 01:20:00,
2013-01-02 17:25:00,49.6,31.7,30.07,ESE,112,0.0,0.0,50,0.00,,,0.00,0,WeatherCatV1.12B45,2013-01-03 01:25:00,
2013-01-02 17:30:00,49.4,32.0,30.07,ESE,107,0.0,0.0,51,0.00,,,0.00,0,WeatherCatV1.12B45,2013-01-03 01:30:00,
2013-01-02 17:35:00,49.1,32.2,30.07,SE,140,2.0,2.0,52,0.00,,,0.00,0,WeatherCatV1.12B45,2013-01-03 01:35:00,
2013-01-02 17:40:00,48.8,32.0,30.07,SSE,147,0.0,0.0,52,0.00,,,0.00,0,WeatherCatV1.12B45,2013-01-03 01:40:00,
2013-01-02 17:45:00,48.5,32.2,30.07,SSE,158,0.0,0.0,53,0.00,,,0.00,0,WeatherCatV1.12B45,2013-01-03 01:45:00,
2013-01-02 17:50:00,48.3,32.0,30.07,SSE,151,0.0,0.0,53,0.00,,,0.00,0,WeatherCatV1.12B45,2013-01-03 01:50:00,
2013-01-02 17:55:00,47.9,31.6,30.07,SSE,150,0.0,0.0,53,0.00,,,0.00,0,WeatherCatV1.12B45,2013-01-03 01:55:00,
2013-01-02 18:00:00,47.6,32.2,30.07,ESE,110,0.0,0.0,55,0.00,,,0.00,0,WeatherCatV1.12B45,2013-01-03 02:00:00,
2013-01-02 18:05:00,47.3,32.0,30.07,ENE,72,0.0,0.0,55,0.00,,,0.00,0,WeatherCatV1.12B45,2013-01-03 02:05:00,
2013-01-02 18:10:00,46.8,32.4,30.07,ESE,103,0.0,0.0,57,0.00,,,0.00,0,WeatherCatV1.12B45,2013-01-03 02:10:00,
2013-01-02 18:15:00,46.4,32.4,30.07,ESE,120,0.0,0.0,58,0.00,,,0.00,0,WeatherCatV1.12B45,2013-01-03 02:15:00,
2013-01-02 18:20:00,46.0,32.1,30.07,SE,127,0.0,0.0,58,0.00,,,0.00,0,WeatherCatV1.12B45,2013-01-03 02:20:00,
2013-01-02 18:25:00,45.7,33.4,30.07,South,169,0.0,0.0,62,0.00,,,0.00,0,WeatherCatV1.12B45,2013-01-03 02:25:00,
2013-01-02 18:30:00,45.1,33.3,30.07,East,96,0.0,0.0,63,0.00,,,0.00,0,WeatherCatV1.12B45,2013-01-03 02:30:00,
2013-01-02 18:35:00,44.5,33.9,30.07,SE,126,0.0,0.0,66,0.00,,,0.00,0,WeatherCatV1.12B45,2013-01-03 02:35:00,
2013-01-02 18:40:00,44.2,33.6,30.07,SE,138,0.0,0.0,66,0.00,,,0.00,0,WeatherCatV1.12B45,2013-01-03 02:40:00,
2013-01-02 18:45:00,43.9,33.3,30.07,SE,127,0.0,0.0,66,0.00,,,0.00,0,WeatherCatV1.12B45,2013-01-03 02:45:00,
2013-01-02 18:50:00,43.6,33.4,30.07,ESE,103,0.0,0.0,67,0.00,,,0.00,0,WeatherCatV1.12B45,2013-01-03 02:50:00,
2013-01-02 18:55:00,43.3,33.5,30.07,ESE,109,0.0,0.0,68,0.00,,,0.00,0,WeatherCatV1.12B45,2013-01-03 02:55:00,
2013-01-02 19:00:00,42.9,33.1,30.07,ESE,120,0.0,0.0,68,0.00,,,0.00,0,WeatherCatV1.12B45,2013-01-03 03:00:00,
2013-01-02 19:05:00,42.6,32.8,30.07,ESE,109,0.0,0.0,68,0.00,,,0.00,0,WeatherCatV1.12B45,2013-01-03 03:05:00,
2013-01-02 19:10:00,42.3,33.2,30.07,ESE,106,0.0,0.0,70,0.00,,,0.00,0,WeatherCatV1.12B45,2013-01-03 03:10:00,
2013-01-02 19:15:00,42.1,33.0,30.07,South,174,0.0,0.0,70,0.00,,,0.00,0,WeatherCatV1.12B45,2013-01-03 03:15:00,
2013-01-02 19:20:00,41.9,32.8,30.07,South,178,0.0,0.0,70,0.00,,,0.00,0,WeatherCatV1.12B45,2013-01-03 03:20:00,
2013-01-02 19:25:00,41.3,33.0,30.07,South,171,0.0,0.0,72,0.00,,,0.00,0,WeatherCatV1.12B45,2013-01-03 03:25:00,
2013-01-02 19:30:00,41.1,33.5,30.07,South,176,0.0,0.0,74,0.00,,,0.00,0,WeatherCatV1.12B45,2013-01-03 03:30:00,
2013-01-02 19:40:00,40.3,33.0,30.07,SE,131,0.0,0.0,75,0.00,,,0.00,0,WeatherCatV1.12B45,2013-01-03 03:40:00,
2013-01-02 19:45:00,40.2,33.2,30.08,SE,124,0.0,0.0,76,0.00,,,0.00,0,WeatherCatV1.12B45,2013-01-03 03:45:00,
2013-01-02 19:55:00,39.6,33.0,30.08,ESE,102,0.0,0.0,77,0.00,,,0.00,0,WeatherCatV1.12B45,2013-01-03 03:55:00,
2013-01-02 20:00:00,39.3,32.7,30.08,ESE,119,0.0,0.0,77,0.00,,,0.00,0,WeatherCatV1.12B45,2013-01-03 04:00:00,
2013-01-02 20:05:00,39.2,33.2,30.08,East,99,0.0,0.0,79,0.00,,,0.00,0,WeatherCatV1.12B45,2013-01-03 04:05:00,
2013-01-02 20:10:00,39.1,33.1,30.08,ESE,102,0.0,0.0,79,0.00,,,0.00,0,WeatherCatV1.12B45,2013-01-03 04:10:00,
2013-01-02 20:15:00,38.8,32.9,30.08,ESE,103,0.0,0.0,79,0.00,,,0.00,0,WeatherCatV1.12B45,2013-01-03 04:15:00,
2013-01-02 20:20:00,38.6,33.0,30.08,ESE,116,0.0,0.0,80,0.00,,,0.00,0,WeatherCatV1.12B45,2013-01-03 04:20:00,
2013-01-02 20:25:00,38.5,33.2,30.08,SE,133,0.0,0.0,81,0.00,,,0.00,0,WeatherCatV1.12B45,2013-01-03 04:25:00,
2013-01-02 20:30:00,38.3,33.0,30.08,SE,137,0.0,0.0,81,0.00,,,0.00,0,WeatherCatV1.12B45,2013-01-03 04:30:00,
2013-01-02 20:35:00,38.0,32.7,30.08,SE,145,0.0,0.0,81,0.00,,,0.00,0,WeatherCatV1.12B45,2013-01-03 04:35:00,
2013-01-02 20:40:00,37.8,32.5,30.08,SSE,150,0.0,0.0,81,0.00,,,0.00,0,WeatherCatV1.12B45,2013-01-03 04:40:00,
2013-01-02 20:45:00,37.6,32.6,30.08,SE,141,0.0,0.0,82,0.00,,,0.00,0,WeatherCatV1.12B45,2013-01-03 04:45:00,
2013-01-02 20:50:00,37.5,32.5,30.08,SE,127,0.0,0.0,82,0.00,,,0.00,0,WeatherCatV1.12B45,2013-01-03 04:50:00,
2013-01-02 20:55:00,37.2,32.2,30.08,SE,137,0.0,0.0,82,0.00,,,0.00,0,WeatherCatV1.12B45,2013-01-03 04:55:00,
2013-01-02 21:00:00,37.0,32.3,30.08,SE,141,0.0,0.0,83,0.00,,,0.00,0,WeatherCatV1.12B45,2013-01-03 05:00:00,
2013-01-02 21:10:00,36.6,32.2,30.08,SE,134,0.0,0.0,84,0.00,,,0.00,0,WeatherCatV1.12B45,2013-01-03 05:10:00,
2013-01-02 21:15:00,36.5,32.1,30.08,SE,138,0.0,0.0,84,0.00,,,0.00,0,WeatherCatV1.12B45,2013-01-03 05:15:00,
2013-01-02 21:20:00,36.3,31.9,30.08,SE,141,0.0,0.0,84,0.00,,,0.00,0,WeatherCatV1.12B45,2013-01-03 05:20:00,
2013-01-02 21:25:00,36.2,32.1,30.08,SE,134,0.0,0.0,85,0.00,,,0.00,0,WeatherCatV1.12B45,2013-01-03 05:25:00,
2013-01-02 21:30:00,35.9,31.8,30.08,SE,131,0.0,0.0,85,0.00,,,0.00,0,WeatherCatV1.12B45,2013-01-03 05:30:00,
2013-01-02 21:35:00,35.8,31.7,30.08,SE,144,0.0,0.0,85,0.00,,,0.00,0,WeatherCatV1.12B45,2013-01-03 05:35:00,
2013-01-02 21:40:00,35.6,31.5,30.08,SSE,147,0.0,0.0,85,0.00,,,0.00,0,WeatherCatV1.12B45,2013-01-03 05:40:00,
2013-01-02 21:45:00,35.6,31.5,30.08,SE,141,0.0,0.0,85,0.00,,,0.00,0,WeatherCatV1.12B45,2013-01-03 05:45:00,
2013-01-02 21:50:00,35.5,31.7,30.08,SSE,148,0.0,0.0,86,0.00,,,0.00,0,WeatherCatV1.12B45,2013-01-03 05:50:00,
2013-01-02 21:55:00,35.2,31.4,30.08,SE,141,0.0,0.0,86,0.00,,,0.00,0,WeatherCatV1.12B45,2013-01-03 05:55:00,
2013-01-02 22:00:00,35.0,31.2,30.08,SE,137,0.0,0.0,86,0.00,,,0.00,0,WeatherCatV1.12B45,2013-01-03 06:00:00,
2013-01-02 22:05:00,34.9,31.1,30.08,ESE,123,0.0,0.0,86,0.00,,,0.00,0,WeatherCatV1.12B45,2013-01-03 06:05:00,
2013-01-02 22:10:00,34.9,31.4,30.08,SE,141,0.0,0.0,87,0.00,,,0.00,0,WeatherCatV1.12B45,2013-01-03 06:10:00,
2013-01-02 22:15:00,34.7,31.2,30.08,SE,145,0.0,0.0,87,0.00,,,0.00,0,WeatherCatV1.12B45,2013-01-03 06:15:00,
2013-01-02 22:20:00,34.6,31.1,30.08,SE,133,0.0,0.0,87,0.00,,,0.00,0,WeatherCatV1.12B45,2013-01-03 06:20:00,
2013-01-02 22:25:00,34.6,31.1,30.08,SSE,148,0.0,0.0,87,0.00,,,0.00,0,WeatherCatV1.12B45,2013-01-03 06:25:00,
2013-01-02 22:30:00,34.6,31.1,30.08,SE,143,0.0,0.0,87,0.00,,,0.00,0,WeatherCatV1.12B45,2013-01-03 06:30:00,
2013-01-02 22:35:00,34.3,30.8,30.08,SE,138,0.0,0.0,87,0.00,,,0.00,0,WeatherCatV1.12B45,2013-01-03 06:35:00,
2013-01-02 22:40:00,34.3,31.1,30.08,SE,140,0.0,0.0,88,0.00,,,0.00,0,WeatherCatV1.12B45,2013-01-03 06:40:00,
2013-01-02 22:45:00,34.1,30.9,30.08,SE,131,0.0,0.0,88,0.00,,,0.00,0,WeatherCatV1.12B45,2013-01-03 06:45:00,
2013-01-02 22:55:00,33.8,30.6,30.08,SE,134,0.0,0.0,88,0.00,,,0.00,0,WeatherCatV1.12B45,2013-01-03 06:55:00,
2013-01-02 23:00:00,33.7,30.5,30.09,SE,130,0.0,0.0,88,0.00,,,0.00,0,WeatherCatV1.12B45,2013-01-03 07:00:00,
2013-01-02 23:05:00,33.5,30.3,30.09,SSE,150,0.0,0.0,88,0.00,,,0.00,0,WeatherCatV1.12B45,2013-01-03 07:05:00,
2013-01-02 23:15:00,33.2,30.0,30.09,SE,138,0.0,0.0,88,0.00,,,0.00,0,WeatherCatV1.12B45,2013-01-03 07:15:00,
2013-01-02 23:20:00,33.1,29.9,30.09,SE,137,0.0,0.0,88,0.00,,,0.00,0,WeatherCatV1.12B45,2013-01-03 07:20:00,
2013-01-02 23:30:00,32.8,29.9,30.09,SSE,148,0.0,0.0,89,0.00,,,0.00,0,WeatherCatV1.12B45,2013-01-03 07:30:00,
2013-01-02 23:35:00,32.8,29.9,30.09,SSE,150,0.0,0.0,89,0.00,,,0.00,0,WeatherCatV1.12B45,2013-01-03 07:35:00,
2013-01-02 23:40:00,32.7,29.8,30.09,SSE,157,0.0,0.0,89,0.00,,,0.00,0,WeatherCatV1.12B45,2013-01-03 07:40:00,
2013-01-02 23:45:00,32.5,29.6,30.08,SE,141,0.0,0.0,89,0.00,,,0.00,0,WeatherCatV1.12B45,2013-01-03 07:45:00,
2013-01-02 23:50:00,32.4,29.5,30.08,SE,140,0.0,0.0,89,0.00,,,0.00,0,WeatherCatV1.12B45,2013-01-03 07:50:00,
2013-01-02 23:55:00,32.4,29.5,30.08,ESE,120,0.0,0.0,89,0.00,,,0.00,0,WeatherCatV1.12B45,2013-01-03 07:55:00,